Location: *
(49.4547°N, 7.9131°E)
Time: 21:13:19
(UTC+00:00)

SJ-11-01 - Pass Details

Date: 22 September 2019
Orbit: 684 x 702 km, 98.0° (Epoch: 15 October)

Event Time Altitude Azimuth Distance (km) Brightness Sun altitude
Exits shadow 18:58:40 - 169° (S) 2,750 7.1 -15.4°
Reaches altitude 10° 19:00:07 10° 170° (S) 2,162 6.6 -15.6°
Maximum altitude 19:04:52 77° 256° (WSW) 726 4.4 -16.4°
Drops below altitude 10° 19:09:38 10° 343° (NNW) 2,172 7.4 -17.1°
Sets 19:11:54 0° 345° (NNW) 3,092 8.2 -17.4°
